Orangeburg, SC

8:12 AM EDT on September 22, 2017 (GMT -0400)
Orangeburg Municipal

Weather History for KOGB - October, 2014

Change the Weather History Date:

Friday, October 31, 2014

  Actual Average Record
Temperature  
Mean Temperature 58 °F 60 °F  
Max Temperature 70 °F 73 °F 86 °F (2004)
Min Temperature 46 °F 49 °F 32 °F (1963)
Degree Days  
Heating Degree Days 7 6  
Month to date heating degree days 60 87  
Since 1 July heating degree days 64 90  
Cooling Degree Days 0 1  
Month to date cooling degree days 121 93  
Year to date cooling degree days 2243 2087  
Growing Degree Days 8 (Base 50)    
Moisture  
Dew Point 46 °F    
Average Humidity 71    
Maximum Humidity 93    
Minimum Humidity 32    
Precipitation  
Precipitation 0.35 in 0.07 in 1.72 in (1985)
Month to date precipitation 1.70 3.39  
Year to date precipitation 40.58 40.49  
Sea Level Pressure  
Sea Level Pressure 29.86 in    
Wind  
Wind Speed 4 mph (ENE)    
Max Wind Speed 21 mph    
Max Gust Speed 27 mph    
Visibility 9 miles    
Events Rain    
T = Trace of Precipitation, MM = Missing Value Source: NWS Daily Summary

Daily Weather History Graph

Daily Weather History Graph

Search for Another Location

Airport or City:

Trip Planner

Search our weather history database for the weather conditions in past years. The results will help you decide how hot, cold, wet, or windy it might be!

Date:

Astronomy

Oct. 31, 2014 Rise Set
Actual Time 7:41 AM EDT 6:32 PM EDT
Civil Twilight 7:15 AM EDT 6:57 PM EDT
Nautical Twilight 6:46 AM EDT 7:27 PM EDT
Astronomical Twilight 6:17 AM EDT 7:56 PM EDT
Moon 2:26 PM EDT (10/31) 12:49 AM EDT (10/31)
Length of Visible Light 11h 42m
Length of Day
10h 51m
First Quarter, 56% of the Moon is Illuminated
Oct 31
First Quarter
Nov 6
Full
Nov 14
Last Quarter
Nov 22
New
Nov 29
First Quarter

Hourly Weather History & Observations

Time (EDT) Temp. Dew Point Humidity Pressure Visibility Wind Dir Wind Speed Gust Speed Precip Events Conditions
12:53 AM 51.1 °F 48.0 °F 89% 29.94 in 10.0 mi Calm Calm - N/A   Clear
1:53 AM 50.0 °F 48.0 °F 93% 29.93 in 10.0 mi Calm Calm - N/A   Clear
2:53 AM 50.0 °F 46.9 °F 89% 29.92 in 10.0 mi Calm Calm - N/A   Clear
3:53 AM 51.1 °F 45.0 °F 80% 29.91 in 10.0 mi Calm Calm - N/A   Mostly Cloudy
4:53 AM 51.1 °F 45.0 °F 80% 29.90 in 10.0 mi NE 4.6 mph - N/A   Mostly Cloudy
5:53 AM 51.1 °F 46.0 °F 83% 29.90 in 10.0 mi Calm Calm - N/A   Mostly Cloudy
6:53 AM 48.0 °F 45.0 °F 89% 29.91 in 10.0 mi WNW 3.5 mph - N/A   Mostly Cloudy
7:53 AM 46.9 °F 44.1 °F 90% 29.91 in 8.0 mi Calm Calm - N/A   Clear
8:53 AM 53.1 °F 46.9 °F 80% 29.92 in 10.0 mi NNE 4.6 mph - N/A   Clear
9:53 AM 57.0 °F 48.0 °F 72% 29.93 in 10.0 mi NNE 5.8 mph - N/A   Clear
10:53 AM 60.1 °F 48.0 °F 64% 29.92 in 10.0 mi ENE 5.8 mph - N/A   Clear
11:53 AM 63.0 °F 48.0 °F 58% 29.91 in 10.0 mi East 5.8 mph - N/A   Clear
12:53 PM 66.0 °F 45.0 °F 47% 29.87 in 10.0 mi Variable 3.5 mph - N/A   Clear
1:53 PM 68.0 °F 42.1 °F 39% 29.84 in 10.0 mi North 6.9 mph - N/A   Mostly Cloudy
2:53 PM 68.0 °F 37.9 °F 33% 29.82 in 10.0 mi WSW 4.6 mph - N/A   Scattered Clouds
3:53 PM 69.1 °F 39.0 °F 33% 29.79 in 10.0 mi SE 5.8 mph - N/A   Clear
4:53 PM 70.0 °F 39.9 °F 33% 29.78 in 10.0 mi North 3.5 mph - N/A   Partly Cloudy
5:53 PM 66.0 °F 42.1 °F 42% 29.78 in 10.0 mi Calm Calm - N/A   Clear
6:53 PM 60.1 °F 46.0 °F 60% 29.78 in 10.0 mi East 3.5 mph - N/A   Overcast
7:53 PM 57.0 °F 51.1 °F 81% 29.80 in 10.0 mi ENE 5.8 mph - 0.08 in   Overcast
8:53 PM 55.9 °F 52.0 °F 87% 29.81 in 7.0 mi North 6.9 mph - 0.02 in Rain Light Rain
9:30 PM 55.0 °F 52.0 °F 89% 29.82 in 2.0 mi South 11.5 mph - 0.08 in Rain Heavy Rain
9:42 PM 55.0 °F 50.0 °F 83% 29.80 in 5.0 mi SE 8.1 mph - 0.14 in Rain Rain
9:53 PM 55.0 °F 50.0 °F 83% 29.80 in 8.0 mi SE 9.2 mph - 0.17 in Rain Light Rain
10:53 PM 54.0 °F 51.1 °F 90% 29.80 in 10.0 mi SSW 4.6 mph - 0.08 in   Overcast
11:53 PM 54.0 °F 51.1 °F 90% 29.78 in 10.0 mi Calm Calm - 0.00 in   Overcast